RH
28 40 43 37 37 39 36 34 23 29 30 23 21 20 20 21 22 19 17 16 16 15 15 13 12 11 10 9 8 8 9 10 11 12 13 15 17 18 21 22 24 23 22 20 19 22 23 22 23
24 32 35 35 34 33 35 34 27 30 31 27 29 30 29 24 25 21 20 22 19 18 18 16 15 14 14 13 13 10 10 10 11 13 17 19 21 22 32 30 33 30 31 30 25 26 25 24 26
28 24 25 32 30 29 28 29 32 32 33 35 35 39 34 35 32 29 27 26 27 22 21 21 21 20 18 22 25 19 14 15 14 15 22 28 28 28 34 37 36 41 38 33 30 28 26 25 29
54 29 26 28 30 32 31 30 30 32 31 36 48 47 41 40 40 35 29 28 30 27 29 32 31 28 29 32 33 37 30 21 22 23 29 40 46 38 36 52 56 58 50 41 33 28 28 33 33
54 63 31 32 35 34 32 32 31 34 40 41 46 51 50 52 45 44 34 31 33 34 40 37 42 39 38 35 34 41 44 39 34 27 35 62 65 56 60 59 60 57 62 50 37 36 38 39 39
70 48 52 43 37 38 36 35 36 37 42 46 50 50 60 60 61 52 39 34 36 38 42 43 43 43 44 44 44 48 40 38 37 38 33 54 78 96 90 86 77 71 70 64 52 45 52 49 42
62 66 59 76 100 96 69 49 38 44 47 51 60 64 75 77 77 67 50 42 35 35 37 37 42 42 40 39 40 40 57 58 52 38 38 45 74 74 69 66 73 90 78 68 60 55 53 50 48
67 62 78 96 90 92 91 96 81 58 51 51 51 72 72 82 97 75 54 49 45 38 40 38 34 34 41 42 47 46 40 40 46 43 42 44 60 69 56 56 52 62 69 82 72 52 52 53 55
94 90 75 94 100 91 87 96 100 100 82 65 66 72 72 100 100 82 57 63 54 52 40 39 43 42 36 34 33 33 35 38 44 45 49 42 40 52 56 61 57 50 43 63 78 85 90 71 56
100 98 100 96 82 97 100 87 100 100 100 100 80 80 99 100 95 90 72 71 65 61 51 48 48 44 45 43 42 40 37 38 52 50 44 40 47 59 62 67 62 61 42 36 40 69 81 92 85
94 99 96 100 89 61 79 100 87 100 100 100 100 100 100 100 93 91 87 89 80 79 69 59 53 54 56 48 51 44 45 45 62 65 57 44 36 37 50 56 77 76 54 39 42 62 63 63 62
56 79 67 84 71 60 50 78 100 90 100 100 100 100 100 100 100 100 100 100 100 85 82 79 74 73 78 71 68 52 49 46 81 73 71 60 47 37 46 50 69 82 77 49 61 70 73 58 46
49 58 56 55 50 52 48 57 96 76 96 96 100 100 100 100 100 100 100 100 99 81 88 93 95 94 93 93 82 75 58 58 100 100 88 72 61 51 47 46 76 100 99 72 64 61 59 69 64
44 45 60 48 50 48 47 48 77 100 91 85 100 100 100 100 100 100 100 100 100 99 100 98 98 100 100 100 100 80 69 58 52 56 66 94 87 64 49 50 58 91 100 60 60 64 56 64 58
59 47 47 55 51 48 48 50 53 93 100 100 100 99 100 100 100 98 93 100 100 100 98 100 100 100 100 100 99 96 83 61 56 61 64 73 90 61 53 43 63 90 100 79 69 74 60 70 64
60 54 52 43 43 47 46 48 43 53 65 98 100 100 100 100 100 98 100 100 98 100 100 100 100 100 100 99 100 96 84 78 64 56 61 75 72 96 68 48 56 93 100 97 82 90 81 90 91
56 55 51 57 49 42 44 46 42 38 38 42 56 66 68 70 66 82 94 100 100 98 95 100 99 100 98 99 97 96 97 83 68 63 78 88 83 85 80 54 52 77 100 100 100 94 99 100 92
43 40 50 55 59 51 45 40 36 43 40 39 40 46 57 73 80 85 84 95 100 100 100 98 93 98 100 97 97 90 84 71 64 70 76 86 73 64 86 72 69 74 100 100 100 98 100 100 84
47 38 50 47 56 58 53 44 40 39 39 43 48 47 44 41 49 66 70 79 94 95 98 100 100 100 100 100 100 85 74 69 64 64 81 90 86 84 83 70 70 79 100 100 100 100 99 100 99
55 47 53 51 55 57 59 53 51 52 49 46 52 52 51 48 47 48 55 70 93 97 100 100 99 99 97 98 99 80 60 52 52 61 78 93 85 86 64 62 84 83 100 100 100 100 100 100 100
48 55 60 61 51 55 62 62 60 60 61 59 55 52 58 60 54 50 57 75 94 96 86 76 72 75 74 74 69 66 63 60 53 60 64 81 79 63 61 51 74 82 100 100 100 100 100 100 100
36 46 45 53 62 61 62 67 64 63 61 59 57 52 50 51 52 50 53 67 79 88 82 60 53 56 55 63 61 54 50 51 46 56 57 56 67 59 55 45 68 89 100 100 100 100 100 100 100
30 36 42 49 47 49 55 61 62 62 59 56 54 51 49 47 45 48 47 48 49 46 46 42 42 42 42 42 40 38 39 36 48 47 47 52 50 52 38 30 55 89 96 100 100 100 99 100 100
24 27 34 37 47 52 64 58 61 56 64 62 58 57 53 49 47 46 43 41 42 39 38 36 35 39 43 38 33 28 25 29 36 38 41 39 48 31 26 25 37 87 87 88 100 100 86 100 100
18 22 28 34 45 49 47 59 66 59 60 52 50 50 52 52 46 38 34 36 37 36 32 29 31 38 38 30 22 18 18 19 29 34 33 25 30 24 29 28 32 49 73 100 100 100 100 100 100
18 22 25 28 32 36 43 46 48 52 52 52 52 44 43 38 34 37 34 30 33 31 25 25 25 26 21 16 16 19 19 18 19 17 19 17 20 24 22 20 31 47 68 100 100 95 100 100 100
17 19 21 27 32 36 41 45 43 43 41 44 42 38 39 36 28 26 29 34 28 23 20 15 17 21 19 14 13 14 14 13 13 15 17 16 20 24 33 22 29 43 79 98 100 100 100 100 100
22 25 26 26 28 33 38 38 35 42 39 38 40 38 35 33 35 30 21 20 25 23 21 23 16 14 14 13 13 14 16 15 14 13 14 17 19 18 16 24 38 50 88 90 96 100 100 100 100
27 28 32 29 30 28 30 36 46 45 39 36 35 33 29 28 26 19 18 28 25 21 21 17 15 14 14 14 16 18 56 57 67 44 18 48 46 18 17 20 32 55 90 100 100 100 100 100 100
59 60 57 53 43 40 38 44 46 39 38 35 28 29 33 39 40 27 22 21 20 20 20 17 18 21 22 24 26 30 62 100 96 72 40 36 26 24 48 25 69 87 100 100 100 100 100 100 100
Wind_Speed
34 33 32 33 35 37 38 36 27 25 27 28 30 30 32 32 37 40 40 43 46 47 48 49 53 55 59 63 62 61 62 64 66 67 67 66 67 63 63 65 64 63 63 63 64 63 61 59 57
33 33 34 37 40 42 42 38 32 33 34 32 29 32 35 33 35 41 38 39 44 45 45 47 48 47 49 53 56 57 55 53 54 54 53 54 55 54 56 55 55 58 58 59 60 57 56 58 55
37 36 35 40 46 48 47 45 39 41 39 35 37 37 35 33 34 38 38 39 40 44 47 46 45 45 45 46 48 48 47 47 47 45 44 43 44 48 51 52 52 55 56 55 58 60 59 56 54
42 39 40 44 50 50 49 47 47 43 44 44 44 40 38 40 38 39 39 39 41 41 43 45 46 45 45 43 45 45 44 44 41 40 38 40 42 43 45 50 52 53 55 55 58 57 56 57 55
45 43 42 46 52 55 53 51 50 47 45 46 47 44 42 44 45 44 41 41 43 43 44 46 47 47 46 44 45 43 43 43 42 39 37 36 40 42 44 47 48 48 53 53 54 55 57 56 52
47 47 44 51 58 60 59 55 53 52 48 46 50 49 47 47 47 44 42 43 45 44 44 47 48 49 48 46 43 44 44 42 41 38 37 34 37 40 42 46 47 48 48 52 53 53 52 54 54
47 47 47 53 60 60 60 55 55 55 54 51 53 52 51 49 49 45 42 43 43 44 45 47 48 49 49 48 47 46 44 45 44 42 37 38 35 37 42 42 41 45 48 49 53 55 55 56 55
52 48 50 55 61 61 61 59 58 59 58 58 57 54 53 54 51 49 48 50 48 43 44 42 42 46 46 46 47 47 48 47 47 47 46 43 42 46 43 43 42 42 41 45 49 53 56 55 55
59 53 51 59 62 62 64 61 61 59 60 60 60 56 55 49 53 54 54 50 49 47 46 44 48 48 48 47 48 46 44 47 48 46 46 49 50 51 49 48 46 45 44 42 43 48 53 55 55
63 61 61 61 62 63 64 62 60 60 59 60 61 58 55 54 58 55 56 54 54 50 50 48 48 49 50 52 51 51 52 47 45 49 50 49 52 55 56 54 51 47 48 47 45 44 47 48 49
67 64 65 66 64 60 64 65 61 60 58 63 60 58 56 59 61 61 60 57 55 54 52 53 52 52 54 53 54 54 56 55 54 48 47 48 50 54 56 56 51 48 47 46 42 38 38 41 42
63 65 64 65 65 62 64 66 63 59 57 60 59 59 58 61 62 63 62 57 55 55 56 58 57 55 56 56 60 55 57 57 54 50 52 49 50 50 51 50 44 44 42 39 36 38 40 42 44
66 65 65 63 64 63 60 63 65 60 62 61 57 59 62 63 64 63 59 59 60 63 62 60 58 61 63 59 60 60 56 52 48 52 50 48 52 53 47 47 40 40 40 39 37 36 37 38 40
72 71 67 64 63 62 62 60 60 65 64 61 62 63 64 65 66 65 64 65 65 65 65 62 63 65 64 62 60 59 58 54 54 61 59 55 54 54 52 45 41 39 37 39 34 35 35 35 35
77 75 71 71 68 64 62 59 59 64 67 65 64 66 68 69 70 69 67 65 66 68 69 66 68 65 65 63 65 64 63 62 62 57 57 57 57 53 54 47 41 40 40 38 38 35 36 37 35
82 79 78 73 72 70 66 66 65 66 67 69 71 72 71 71 71 71 71 71 72 71 70 70 68 68 67 67 68 67 66 67 65 62 60 58 59 56 53 47 42 40 40 38 38 41 43 40 35
85 84 82 79 77 77 75 72 70 73 72 74 77 78 79 78 77 76 75 74 74 76 75 74 74 73 72 73 73 75 74 70 68 63 64 61 63 59 54 49 43 42 40 35 37 37 38 37 35
93 85 86 83 82 81 77 77 75 77 78 79 79 80 79 79 79 78 78 79 79 79 80 80 79 78 77 78 78 77 75 74 73 69 68 68 68 61 56 53 44 44 43 43 37 37 36 36 41
94 91 84 82 85 84 82 80 81 82 80 81 81 79 80 82 83 81 81 81 80 81 81 82 83 82 82 83 81 80 79 78 77 74 74 72 70 67 61 54 49 44 44 45 38 37 36 38 40
98 93 88 85 86 84 84 83 85 85 85 82 82 82 82 83 84 85 85 84 84 83 83 85 87 89 89 87 84 83 81 81 80 77 75 71 69 70 63 56 55 48 46 47 47 39 38 37 38
98 94 94 92 89 86 86 84 85 86 86 86 84 83 83 83 85 86 87 88 89 90 90 91 93 93 92 91 89 89 89 87 82 77 74 70 73 72 66 61 59 52 48 45 47 44 40 39 40
96 100 99 97 97 91 86 86 85 88 89 89 88 87 86 85 85 86 88 91 92 93 93 93 92 93 94 95 94 92 90 86 82 77 80 76 75 74 68 64 61 57 51 45 44 43 40 40 43
91 91 96 96 97 93 89 89 91 90 93 94 93 93 90 89 88 88 89 90 91 93 93 93 95 95 96 94 91 89 87 83 77 76 75 76 74 68 66 61 62 62 53 47 45 45 41 41 43
94 93 92 92 93 91 94 93 92 92 94 96 95 97 95 93 92 92 93 92 92 92 94 95 94 94 94 92 90 88 83 78 77 73 72 68 66 63 60 59 60 64 56 48 47 44 39 39 41
92 90 90 90 92 91 90 95 99 93 94 95 93 95 96 97 99 97 94 93 93 94 94 92 88 87 90 89 85 84 84 78 73 65 62 62 60 59 62 58 58 62 52 49 44 38 36 39 41
82 83 86 87 88 86 83 86 92 94 96 96 98 94 94 97 98 98 96 95 93 93 91 89 88 84 81 72 66 64 66 61 56 55 56 56 57 57 61 55 55 55 57 46 43 40 38 38 36
73 78 79 80 80 82 82 85 87 88 90 91 94 95 96 96 94 93 92 91 88 84 82 76 66 61 57 52 49 49 50 50 50 52 55 51 53 58 55 52 53 52 53 51 46 41 39 38 37
66 69 72 77 79 80 79 82 86 84 88 90 92 93 92 91 91 89 83 77 72 70 64 56 52 48 47 47 46 46 46 44 42 42 44 48 53 53 51 51 46 51 51 47 39 41 42 39 38
59 62 65 71 73 76 78 79 78 82 85 88 89 87 85 82 79 76 67 61 61 54 47 44 40 38 38 35 35 34 23 16 20 28 29 34 39 44 47 49 44 51 55 49 40 42 46 43 44
48 52 59 63 66 71 73 74 74 77 81 81 78 74 71 70 68 63 53 54 45 41 39 34 31 28 27 28 31 32 30 26 21 25 28 29 33 36 43 47 47 48 52 49 44 43 39 37 40
Wind_Direction
272 270 263 261 268 272 276 277 283 284 287 292 289 289 286 283 285 280 277 277 275 273 273 271 268 268 268 269 265 266 265 265 267 268 268 269 270 272 271 270 269 270 272 272 274 273 272 274 276
272 268 258 259 267 271 273 278 277 280 287 295 295 298 299 299 300 292 287 284 279 275 275 274 274 273 272 270 270 265 266 267 268 269 270 270 269 268 268 267 263 264 266 269 269 269 269 270 273
275 266 261 259 265 270 273 276 279 281 283 291 292 298 297 302 302 298 299 294 288 285 282 280 280 278 276 275 276 276 270 269 270 272 270 273 274 273 268 267 268 266 266 264 265 266 270 271 275
274 270 264 263 266 269 273 274 276 282 281 284 292 294 294 297 306 307 301 298 294 294 290 288 285 279 278 280 279 281 282 277 274 270 274 282 276 278 275 269 268 265 266 265 265 265 267 272 277
274 271 267 264 266 270 273 274 275 278 281 285 286 288 291 295 301 307 307 302 300 296 289 288 285 285 283 281 280 281 281 282 282 279 273 281 280 280 279 278 276 270 266 268 265 267 270 274 280
277 272 272 266 267 270 271 274 274 277 278 281 285 289 290 293 297 303 306 302 297 293 289 287 287 285 286 284 282 282 282 278 278 278 278 271 273 280 283 280 281 278 274 268 270 269 270 276 281
273 275 273 274 273 271 272 273 273 273 275 280 282 287 290 290 292 294 298 299 296 291 290 289 287 287 288 286 281 280 279 282 280 278 274 270 271 273 276 277 281 280 278 276 270 268 270 276 279
270 273 270 274 273 277 279 274 273 273 273 277 281 282 285 289 288 295 295 299 300 294 294 290 291 291 286 284 283 282 281 278 276 277 274 274 268 267 268 277 276 279 282 279 275 272 273 277 278
271 273 269 269 272 276 280 279 273 272 274 276 276 280 283 282 290 292 294 294 297 294 300 298 296 296 293 293 291 288 286 282 277 272 272 270 268 268 268 272 273 278 276 278 276 277 277 277 276
271 275 270 271 268 270 276 277 275 272 271 274 275 279 281 282 284 286 289 291 294 292 293 298 297 296 295 297 296 299 302 295 287 274 271 269 266 263 266 268 269 274 275 275 274 276 280 279 277
276 271 272 270 270 270 269 271 274 271 270 269 273 275 277 278 282 283 284 287 293 290 289 295 293 295 298 295 295 297 302 298 297 289 278 276 271 265 262 264 266 267 271 269 269 272 274 273 274
277 271 271 270 271 271 269 268 269 270 271 269 271 272 273 275 279 280 281 284 281 286 290 293 290 289 295 294 294 294 296 296 293 284 282 281 280 273 265 265 264 264 270 271 268 267 273 273 272
276 274 274 272 273 270 268 266 267 271 267 270 268 268 269 272 274 276 278 279 280 284 292 293 291 291 290 290 288 290 292 290 280 279 283 283 283 278 273 263 261 268 268 270 270 271 272 271 272
277 276 273 277 273 270 267 266 264 265 267 268 267 266 267 269 272 274 275 280 281 284 289 289 286 287 286 284 283 282 285 285 286 282 279 280 284 279 276 269 259 262 269 265 266 272 271 271 272
272 274 273 272 273 272 270 269 266 264 267 267 267 268 269 269 271 274 277 278 281 283 284 284 286 283 283 281 281 281 280 283 286 282 281 281 281 281 277 271 259 263 272 269 266 268 278 274 270
271 272 271 271 274 272 269 266 266 268 267 269 269 269 268 269 272 275 276 275 278 279 280 281 280 281 280 279 279 278 278 281 283 283 282 285 281 281 278 269 258 259 268 270 271 268 276 271 261
269 268 271 272 269 268 268 268 268 265 267 268 267 267 269 270 271 271 273 275 276 277 276 277 279 278 277 279 280 281 281 278 279 279 283 283 279 277 278 270 255 252 256 267 272 270 271 267 259
269 271 269 268 269 267 268 266 267 265 264 266 268 269 269 269 270 272 274 275 276 277 277 277 277 276 276 278 278 278 277 277 278 279 281 281 278 272 273 268 255 249 253 257 265 266 267 257 255
269 267 266 265 265 266 266 265 267 266 266 265 266 267 267 268 270 271 272 274 275 274 274 275 275 276 276 276 274 274 274 275 277 278 277 276 274 268 266 262 253 247 250 250 258 259 264 251 259
270 270 267 262 263 263 263 264 264 266 267 266 265 265 267 270 270 270 270 271 271 272 273 273 274 274 276 275 273 272 271 274 278 275 274 271 267 264 259 254 247 241 244 248 252 255 257 251 258
265 266 264 261 262 262 261 262 264 266 267 267 267 266 266 268 270 271 272 271 271 273 273 273 273 274 274 274 274 273 274 274 277 271 268 261 262 261 257 248 242 237 240 248 252 251 252 252 255
261 260 263 263 261 259 258 259 263 264 266 267 267 268 268 268 269 271 271 270 270 272 272 273 272 271 271 271 272 274 274 274 272 264 263 260 259 260 258 245 238 233 234 242 243 245 252 252 256
260 257 257 257 260 260 260 259 260 260 265 268 269 270 271 272 271 270 270 270 269 269 270 271 272 273 273 273 272 272 271 269 262 261 258 257 256 253 250 241 236 231 228 234 241 244 252 253 256
254 254 254 255 256 259 260 261 261 261 263 266 269 272 272 273 273 272 270 270 271 272 274 274 273 272 272 272 273 271 267 261 257 256 256 252 248 245 244 240 233 229 225 228 237 243 247 253 254
252 252 251 253 257 259 256 259 261 264 265 264 268 272 273 272 272 274 273 273 275 276 276 275 273 271 271 270 269 268 266 259 254 252 248 245 240 240 238 238 233 228 219 222 229 238 245 251 251
249 250 251 253 255 256 256 258 260 263 264 267 268 269 269 270 272 274 275 275 275 275 273 272 271 270 269 267 263 260 258 256 247 245 243 242 236 236 236 234 230 224 218 221 230 241 247 239 241
244 248 249 250 253 253 254 256 258 260 263 264 264 267 270 270 271 273 275 275 274 273 271 272 271 265 263 261 257 255 254 251 248 246 243 240 235 231 233 231 226 217 213 220 223 233 241 237 241
242 245 248 251 253 254 255 257 260 260 261 261 264 267 270 272 272 273 272 271 269 268 270 268 266 263 259 256 252 250 249 251 250 247 241 232 229 228 228 227 220 211 210 218 224 234 237 238 240
244 246 249 251 253 253 256 257 258 261 263 266 268 269 270 270 270 270 268 266 265 268 265 262 258 254 250 243 234 228 222 224 246 242 228 221 220 220 220 220 210 205 206 214 217 233 241 241 248
248 249 251 253 254 256 256 258 262 264 265 267 270 272 272 270 269 266 264 260 261 260 258 253 246 236 225 214 210 205 185 178 190 222 213 208 205 203 209 207 202 203 204 204 213 229 229 247 249